Canyon City, OR

3:37 PM PDT on August 24, 2016 (GMT -0700)
Grant County Regional

Weather History for KGCD - November, 2012

Change the Weather History Date:

Saturday, November 17, 2012

  Actual Average (KBNO) Record (KBNO)
Temperature  
Mean Temperature 43 °F 33 °F  
Max Temperature 51 °F 44 °F 65 °F (1976)
Min Temperature 35 °F 21 °F 1 °F (2014)
Degree Days  
Heating Degree Days 22 32  
Month to date heating degree days 493  
Since 1 July heating degree days 1543  
Cooling Degree Days 0 0  
Month to date cooling degree days 0  
Year to date cooling degree days 215  
Moisture  
Dew Point 37 °F    
Average Humidity 69    
Maximum Humidity 93    
Minimum Humidity 54    
Precipitation  
Precipitation 0.07 in 0.04 in 0.54 in (2012)
Month to date precipitation 0.62  
Year to date precipitation 8.82  
Sea Level Pressure  
Sea Level Pressure 29.74 in    
Wind  
Wind Speed 15 mph (South)    
Max Wind Speed 37 mph    
Max Gust Speed 45 mph    
Visibility 10 miles    
Events Rain , Thunderstorm    
T = Trace of Precipitation, MM = Missing Value Source: NWS Daily Summary

Daily Weather History Graph

Daily Weather History Graph

Search for Another Location

Airport or City:

Trip Planner

Search our weather history database for the weather conditions in past years. The results will help you decide how hot, cold, wet, or windy it might be!

Date:

Astronomy

Nov. 17, 2012 Rise Set
Actual Time 6:55 AM PST 4:26 PM PST
Civil Twilight 6:23 AM PST 4:57 PM PST
Nautical Twilight 5:48 AM PST 5:33 PM PST
Astronomical Twilight 5:13 AM PST 6:07 PM PST
Moon 10:43 AM PST (11/17) 8:42 PM PST (11/17)
Length of Visible Light 10h 34m
Length of Day
9h 30m
Waxing Crescent, 21% of the Moon is Illuminated
Nov 17
Waxing Crescent
Nov 20
First Quarter
Nov 28
Full
Dec 6
Last Quarter
Dec 13
New

Hourly Weather History & Observations

Time (PST) Temp. Windchill Dew Point Humidity Pressure Visibility Wind Dir Wind Speed Gust Speed Precip Events Conditions
12:15 AM 48.2 °F - 35.6 °F 62% 29.89 in 10.0 mi SSE 13.8 mph 26.5 mph N/A   Scattered Clouds
12:35 AM 48.2 °F - 35.6 °F 62% 29.88 in 10.0 mi South 11.5 mph 21.9 mph N/A   Scattered Clouds
12:55 AM 48.2 °F - 35.6 °F 62% 29.86 in 10.0 mi SSE 12.7 mph 20.7 mph N/A   Scattered Clouds
1:15 AM 50.0 °F - 33.8 °F 54% 29.86 in 10.0 mi South 4.6 mph 21.9 mph N/A   Mostly Cloudy
1:35 AM 50.0 °F - 33.8 °F 54% 29.85 in 10.0 mi SSE 15.0 mph 25.3 mph N/A   Overcast
1:55 AM 50.0 °F - 33.8 °F 54% 29.85 in 10.0 mi SSE 15.0 mph 33.4 mph N/A   Overcast
2:15 AM 50.0 °F - 33.8 °F 54% 29.86 in 10.0 mi East 5.8 mph 17.3 mph N/A   Overcast
2:35 AM 50.0 °F - 33.8 °F 54% 29.84 in 10.0 mi South 21.9 mph - N/A   Overcast
2:55 AM 50.0 °F - 33.8 °F 54% 29.84 in 10.0 mi South 24.2 mph 31.1 mph N/A   Overcast
3:15 AM 50.0 °F - 33.8 °F 54% 29.83 in 10.0 mi South 20.7 mph 31.1 mph N/A   Overcast
3:35 AM 50.0 °F - 33.8 °F 54% 29.83 in 10.0 mi South 23.0 mph 28.8 mph N/A   Overcast
3:55 AM 50.0 °F - 33.8 °F 54% 29.81 in 10.0 mi South 24.2 mph 33.4 mph N/A   Overcast
4:15 AM 50.0 °F - 33.8 °F 54% 29.81 in 10.0 mi SSE 24.2 mph 33.4 mph N/A   Overcast
4:35 AM 50.0 °F - 33.8 °F 54% 29.81 in 10.0 mi South 21.9 mph 31.1 mph N/A   Overcast
4:55 AM 50.0 °F - 33.8 °F 54% 29.81 in 10.0 mi South 24.2 mph 29.9 mph N/A   Overcast
5:15 AM 50.0 °F - 35.6 °F 58% 29.81 in 10.0 mi South 17.3 mph 26.5 mph N/A   Overcast
5:35 AM 50.0 °F - 35.6 °F 58% 29.80 in 10.0 mi South 13.8 mph 18.4 mph N/A   Overcast
5:55 AM 50.0 °F - 33.8 °F 54% 29.80 in 10.0 mi SSE 21.9 mph 28.8 mph N/A   Overcast
6:15 AM 50.0 °F - 33.8 °F 54% 29.79 in 10.0 mi SSE 18.4 mph 29.9 mph N/A   Overcast
6:35 AM 50.0 °F - 33.8 °F 54% 29.79 in 10.0 mi South 21.9 mph 32.2 mph N/A   Overcast
6:55 AM 50.0 °F - 33.8 °F 54% 29.79 in 10.0 mi South 18.4 mph 26.5 mph N/A   Overcast
7:15 AM 50.0 °F - 33.8 °F 54% 29.79 in 10.0 mi SSE 10.4 mph 20.7 mph N/A   Mostly Cloudy
7:35 AM 50.0 °F - 33.8 °F 54% 29.79 in 10.0 mi SSE 23.0 mph 34.5 mph N/A   Scattered Clouds
7:55 AM 50.0 °F - 35.6 °F 58% 29.79 in 10.0 mi ESE 20.7 mph 36.8 mph N/A   Scattered Clouds
8:15 AM 50.0 °F - 35.6 °F 58% 29.77 in 10.0 mi SSE 27.6 mph 35.7 mph N/A   Overcast
8:35 AM 48.2 °F - 35.6 °F 62% 29.77 in 10.0 mi SSE 26.5 mph 36.8 mph N/A   Overcast
9:55 AM 46.4 °F 44.3 °F 37.4 °F 71% 29.76 in 10.0 mi SSW 4.6 mph - 0.01 in Rain Light Rain
10:15 AM 46.4 °F - 41.0 °F 81% 29.74 in 10.0 mi Calm Calm - N/A Rain Rain
10:35 AM 46.4 °F 44.3 °F 41.0 °F 81% 29.74 in 10.0 mi NNW 4.6 mph - N/A   Light Drizzle
10:55 AM 46.4 °F 41.9 °F 39.2 °F 76% 29.73 in 10.0 mi NNW 9.2 mph - N/A   Light Drizzle
11:15 AM 50.0 °F - 39.2 °F 66% 29.71 in 10.0 mi SE 17.3 mph 35.7 mph N/A   Overcast
11:35 AM 48.2 °F - 37.4 °F 66% 29.71 in 10.0 mi SSE 27.6 mph 38.0 mph N/A   Mostly Cloudy
11:55 AM 50.0 °F - 37.4 °F 62% 29.70 in 10.0 mi SSE 36.8 mph 44.9 mph N/A   Overcast
12:15 PM 50.0 °F - 37.4 °F 62% 29.70 in 10.0 mi SSE 24.2 mph 40.3 mph N/A   Overcast
12:35 PM 51.8 °F - 39.2 °F 62% 29.70 in 10.0 mi South 15.0 mph 34.5 mph N/A   Overcast
12:55 PM 50.0 °F - 39.2 °F 66% 29.68 in 10.0 mi SSW 10.4 mph 20.7 mph N/A   Overcast
1:15 PM 50.0 °F - 39.2 °F 66% 29.68 in 10.0 mi South 9.2 mph 24.2 mph N/A   Overcast
1:35 PM 50.0 °F - 39.2 °F 66% 29.68 in 10.0 mi SSW 3.5 mph - N/A   Overcast
1:55 PM 50.0 °F - 39.2 °F 66% 29.67 in 10.0 mi SSW 8.1 mph 21.9 mph N/A   Overcast
2:15 PM 51.8 °F - 39.2 °F 62% 29.66 in 10.0 mi SSE 15.0 mph 21.9 mph N/A   Overcast
2:35 PM 51.8 °F - 39.2 °F 62% 29.64 in 10.0 mi ENE 12.7 mph 31.1 mph N/A   Overcast
2:55 PM 51.8 °F - 39.2 °F 62% 29.64 in 10.0 mi SSE 19.6 mph 31.1 mph N/A   Overcast
3:15 PM 51.8 °F - 39.2 °F 62% 29.63 in 10.0 mi SE 19.6 mph 35.7 mph N/A   Mostly Cloudy
3:35 PM 51.8 °F - 41.0 °F 67% 29.64 in 10.0 mi SE 23.0 mph 32.2 mph N/A   Mostly Cloudy
4:15 PM 50.0 °F - 41.0 °F 71% 29.63 in 10.0 mi South 11.5 mph 17.3 mph N/A   Mostly Cloudy
4:35 PM 48.2 °F - 41.0 °F 76% 29.63 in 10.0 mi SSE 9.2 mph 21.9 mph N/A Rain Rain
4:55 PM 48.2 °F - 42.8 °F 82% 29.63 in 7.0 mi South 15.0 mph 20.7 mph 0.01 in Rain Light Rain
5:15 PM 48.2 °F - 41.0 °F 76% 29.61 in 10.0 mi SSE 17.3 mph 25.3 mph N/A   Scattered Clouds
5:35 PM 48.2 °F - 41.0 °F 76% 29.61 in 10.0 mi SSE 18.4 mph 27.6 mph N/A   Scattered Clouds
5:55 PM 48.2 °F - 41.0 °F 76% 29.62 in 7.0 mi SSE 23.0 mph 28.8 mph N/A   Drizzle
6:15 PM 46.4 °F 44.3 °F 41.0 °F 81% 29.61 in 10.0 mi ENE 4.6 mph 9.2 mph N/A   Scattered Clouds
6:35 PM 48.2 °F - 41.0 °F 76% 29.62 in 10.0 mi South 9.2 mph - N/A   Clear
6:55 PM 48.2 °F - 41.0 °F 76% 29.62 in 10.0 mi SSE 9.2 mph 19.6 mph N/A   Scattered Clouds
7:15 PM 48.2 °F - 41.0 °F 76% 29.61 in 10.0 mi SSE 8.1 mph 18.4 mph N/A   Scattered Clouds
7:35 PM 46.4 °F 37.5 °F 37.4 °F 71% 29.66 in 10.0 mi West 27.6 mph 36.8 mph 0.01 in Rain , Thunderstorm Rain
7:55 PM 37.4 °F 26.9 °F 35.6 °F 93% 29.70 in 7.0 mi West 20.7 mph 31.1 mph 0.03 in Rain Light Rain
8:15 PM 37.4 °F 30.3 °F 35.6 °F 93% 29.72 in 10.0 mi WSW 10.4 mph - 0.01 in Rain Light Rain
8:35 PM 37.4 °F 32.8 °F 35.6 °F 93% 29.73 in 10.0 mi West 5.8 mph - 0.01 in   Overcast
8:55 PM 37.4 °F 31.4 °F 35.6 °F 93% 29.75 in 10.0 mi West 8.1 mph - 0.01 in   Light Drizzle
9:15 PM 37.4 °F 29.8 °F 33.8 °F 87% 29.76 in 10.0 mi WSW 11.5 mph - N/A   Light Drizzle
9:35 PM 37.4 °F 32.8 °F 33.8 °F 87% 29.77 in 10.0 mi SW 5.8 mph - N/A Rain Light Rain
9:55 PM 35.6 °F - 33.8 °F 93% 29.76 in 10.0 mi Calm Calm - N/A   Overcast
10:15 PM 35.6 °F 30.7 °F 33.8 °F 93% 29.79 in 10.0 mi NW 5.8 mph - N/A   Overcast
10:35 PM 35.6 °F 30.7 °F 32.0 °F 87% 29.80 in 10.0 mi West 5.8 mph - N/A   Mostly Cloudy
10:55 PM 35.6 °F - 32.0 °F 87% 29.81 in 10.0 mi Calm Calm - N/A   Scattered Clouds
11:15 PM 35.6 °F 32.8 °F 32.0 °F 87% 29.82 in 10.0 mi West 3.5 mph - 0.01 in   Scattered Clouds
11:35 PM 35.6 °F - 32.0 °F 87% 29.82 in 10.0 mi Calm Calm - 0.01 in   Clear
11:55 PM 35.6 °F 29.2 °F 32.0 °F 87% 29.83 in 10.0 mi WSW 8.1 mph - 0.01 in   Clear